Zurück zum Katalog

HULIANWANG DIGUI-37

AktivKommunikationPO
NORAD 64958·PAYLOAD·🇨🇳 China

Gestartet Jul 27, 2025 von Taiyuan Satellite Launch Center

Loading…

Nächste Überflüge (nächste 24 Stunden)

TLE

AktuellSource: Space-Track

Epoche: Sep 14, 2026, 21:58 UTC

1 64958U 25159C   26257.91577830 -.00000066  00000-0 -18751-3 0  9995
2 64958  86.4855 251.9323 0002032  91.4164 268.7203 13.24404090 55002

Verfolge HULIANWANG DIGUI-37 in Echtzeit mit AllMySat

Download on the App Store